When you browse on this site, cookies collect data to enhance your experience and personalize the content and advertising you see.
Visit our Privacy Policy to learn more. By continuing to use the site, you agree to this use of cookies and data.
  • In Lithuania
  • List of Countries
  • For 7 days
  • Water Temperature
  • Satellite Maps
  • Weather Map
  • Weather Widgets
  • user-avatar
    Login

    Hourly Weather Sydney

    Today, 20 May, Monday

    Time Temperature Precipitation Wind Pressure Humidity
    00:00 +17°C° 0 mm 2 mps 770 mmHg 83%
    01:00 +16°C° 0 mm 2 mps 770 mmHg 85%
    02:00 +16°C° 0 mm 2 mps 770 mmHg 85%
    03:00 +16°C° 0 mm 2 mps 770 mmHg 85%
    04:00 +16°C° 0 mm 1 mps 769 mmHg 88%
    05:00 +16°C° 0 mm 1 mps 769 mmHg 88%
    06:00 +15°C° 0 mm 2 mps 769 mmHg 88%
    07:00 +15°C° 0 mm 2 mps 769 mmHg 88%
    08:00 +17°C° 0 mm 2 mps 769 mmHg 80%
    09:00 +18°C° 0 mm 2 mps 769 mmHg 71%
    10:00 +21°C° 0 mm 1 mps 769 mmHg 64%
    11:00 +22°C° 0 mm 1 mps 768 mmHg 59%
    12:00 +24°C° 0 mm 1 mps 768 mmHg 54%
    13:00 +25°C° 0 mm 1 mps 767 mmHg 49%
    14:00 +24°C° 0 mm 2 mps 767 mmHg 51%
    15:00 +24°C° 0 mm 3 mps 767 mmHg 53%
    16:00 +24°C° 0 mm 3 mps 766 mmHg 54%
    17:00 +22°C° 0 mm 3 mps 767 mmHg 59%
    18:00 +21°C° 0 mm 3 mps 767 mmHg 63%
    19:00 +20°C° 0 mm 3 mps 767 mmHg 68%
    20:00 +19°C° 0 mm 3 mps 767 mmHg 67%
    21:00 +19°C° 0 mm 3 mps 767 mmHg 66%
    22:00 +18°C° 0 mm 3 mps 768 mmHg 65%
    23:00 +18°C° 0 mm 3 mps 768 mmHg 65%

    Tomorrow, 21 May, Tuesday

    Time Temperature Precipitation Wind Pressure Humidity
    00:00 +17°C° 0 mm 2 mps 767 mmHg 64%
    01:00 +17°C° 0 mm 2 mps 767 mmHg 63%
    02:00 +16°C° 0 mm 2 mps 767 mmHg 63%
    03:00 +16°C° 0 mm 2 mps 767 mmHg 63%
    04:00 +16°C° 0 mm 2 mps 767 mmHg 64%
    05:00 +16°C° 0 mm 2 mps 767 mmHg 64%
    06:00 +16°C° 0 mm 2 mps 767 mmHg 65%
    07:00 +14°C° 0 mm 3 mps 768 mmHg 65%
    08:00 +18°C° 0 mm 2 mps 768 mmHg 59%
    09:00 +20°C° 0 mm 2 mps 768 mmHg 53%
    10:00 +23°C° 0 mm 2 mps 768 mmHg 47%
    11:00 +25°C° 0 mm 2 mps 768 mmHg 43%
    12:00 +26°C° 0 mm 1 mps 767 mmHg 40%
    13:00 +28°C° 0 mm 1 mps 767 mmHg 37%
    14:00 +27°C° 0 mm 2 mps 766 mmHg 39%
    15:00 +27°C° 0 mm 2 mps 766 mmHg 41%
    16:00 +26°C° 0 mm 3 mps 766 mmHg 44%
    17:00 +25°C° 0 mm 3 mps 767 mmHg 46%
    18:00 +24°C° 0 mm 3 mps 767 mmHg 49%
    19:00 +22°C° 0 mm 3 mps 767 mmHg 52%
    20:00 +23°C° 0 mm 2 mps 768 mmHg 54%
    21:00 +21°C° 0 mm 2 mps 768 mmHg 56%
    22:00 +20°C° 0 mm 2 mps 768 mmHg 58%
    23:00 +20°C° 0 mm 2 mps 768 mmHg 59%

    Day after tomorrow, 22 May, Wednesday

    Time Temperature Precipitation Wind Pressure Humidity
    00:00 +19°C° 0 mm 2 mps 768 mmHg 61%
    01:00 +19°C° 0 mm 2 mps 768 mmHg 62%
    02:00 +19°C° 0 mm 2 mps 768 mmHg 63%
    03:00 +18°C° 0 mm 2 mps 768 mmHg 63%
    04:00 +18°C° 0 mm 2 mps 768 mmHg 64%
    05:00 +18°C° 0 mm 2 mps 768 mmHg 65%
    06:00 +19°C° 0 mm 1 mps 769 mmHg 66%
    07:00 +18°C° 0 mm 1 mps 769 mmHg 67%
    08:00 +20°C° 0 mm 1 mps 769 mmHg 62%
    09:00 +21°C° 0 mm 2 mps 770 mmHg 57%
    10:00 +23°C° 0 mm 2 mps 770 mmHg 51%
    11:00 +24°C° 0 mm 2 mps 769 mmHg 51%
    12:00 +25°C° 0 mm 3 mps 769 mmHg 50%
    13:00 +25°C° 0 mm 3 mps 769 mmHg 49%
    14:00 +25°C° 0 mm 3 mps 769 mmHg 55%
    15:00 +23°C° 0 mm 4 mps 768 mmHg 62%
    16:00 +22°C° 0 mm 4 mps 768 mmHg 68%
    17:00 +21°C° 0 mm 4 mps 769 mmHg 71%
    18:00 +21°C° 0 mm 4 mps 769 mmHg 74%
    19:00 +20°C° 0 mm 3 mps 770 mmHg 77%
    20:00 +20°C° 0 mm 3 mps 770 mmHg 79%
    21:00 +19°C° 0 mm 3 mps 770 mmHg 81%
    22:00 +19°C° 0 mm 2 mps 771 mmHg 83%
    23:00 +18°C° 0 mm 2 mps 770 mmHg 84%

    23 May, Thursday

    Time Temperature Precipitation Wind Pressure Humidity
    00:00 +18°C° 0 mm 2 mps 770 mmHg 85%
    01:00 +18°C° 0 mm 2 mps 770 mmHg 87%
    02:00 +17°C° 0 mm 2 mps 770 mmHg 87%
    03:00 +17°C° 0 mm 2 mps 770 mmHg 88%
    04:00 +17°C° 0 mm 2 mps 770 mmHg 89%
    05:00 +17°C° 0 mm 2 mps 770 mmHg 89%
    06:00 +17°C° 0 mm 2 mps 770 mmHg 89%
    07:00 +16°C° 0 mm 2 mps 771 mmHg 90%
    08:00 +18°C° 0 mm 2 mps 771 mmHg 82%
    09:00 +20°C° 0 mm 2 mps 771 mmHg 74%
    10:00 +22°C° 0 mm 1 mps 771 mmHg 67%
    11:00 +23°C° 0 mm 1 mps 770 mmHg 63%
    12:00 +24°C° 0 mm 1 mps 769 mmHg 60%
    13:00 +25°C° 0 mm 1 mps 768 mmHg 56%
    14:00 +24°C° 0 mm 1 mps 768 mmHg 58%
    15:00 +23°C° 0 mm 2 mps 768 mmHg 60%
    16:00 +23°C° 0 mm 2 mps 768 mmHg 62%
    17:00 +21°C° 0 mm 2 mps 768 mmHg 67%
    18:00 +20°C° 0 mm 2 mps 768 mmHg 72%
    19:00 +19°C° 0 mm 2 mps 768 mmHg 77%
    20:00 +18°C° 0 mm 2 mps 768 mmHg 80%
    21:00 +18°C° 0 mm 2 mps 768 mmHg 84%
    22:00 +18°C° 0 mm 2 mps 769 mmHg 87%
    23:00 +17°C° 0 mm 2 mps 768 mmHg 88%

    24 May, Friday

    Time Temperature Precipitation Wind Pressure Humidity
    00:00 +17°C° 0 mm 2 mps 768 mmHg 88%
    01:00 +16°C° 0 mm 2 mps 768 mmHg 89%
    02:00 +16°C° 0 mm 2 mps 767 mmHg 85%
    03:00 +15°C° 0 mm 2 mps 767 mmHg 81%
    04:00 +15°C° 0 mm 2 mps 767 mmHg 76%
    05:00 +15°C° 0 mm 2 mps 767 mmHg 71%
    06:00 +15°C° 0 mm 2 mps 767 mmHg 67%
    07:00 +14°C° 0 mm 2 mps 767 mmHg 62%
    08:00 +17°C° 0 mm 2 mps 767 mmHg 54%
    09:00 +19°C° 0 mm 2 mps 767 mmHg 46%
    10:00 +21°C° 0 mm 2 mps 767 mmHg 38%
    11:00 +24°C° 0 mm 1 mps 766 mmHg 36%
    12:00 +26°C° 0 mm 1 mps 766 mmHg 33%
    13:00 +28°C° 0 mm 1 mps 765 mmHg 31%
    14:00 +27°C° 0 mm 1 mps 765 mmHg 34%
    15:00 +26°C° 0 mm 2 mps 765 mmHg 37%
    16:00 +25°C° 0 mm 3 mps 765 mmHg 40%
    17:00 +24°C° 0 mm 3 mps 765 mmHg 44%
    18:00 +22°C° 0 mm 3 mps 765 mmHg 47%
    19:00 +20°C° 0 mm 3 mps 765 mmHg 51%
    20:00 +20°C° 0 mm 3 mps 765 mmHg 50%
    21:00 +19°C° 0 mm 2 mps 765 mmHg 49%
    22:00 +19°C° 0 mm 2 mps 765 mmHg 49%
    23:00 +19°C° 0 mm 2 mps 765 mmHg 49%

    25 May, Saturday

    Time Temperature Precipitation Wind Pressure Humidity
    00:00 +18°C° 0 mm 2 mps 765 mmHg 49%
    01:00 +18°C° 0 mm 2 mps 764 mmHg 49%
    02:00 +18°C° 0 mm 2 mps 764 mmHg 50%
    03:00 +18°C° 0 mm 2 mps 764 mmHg 50%
    04:00 +18°C° 0 mm 2 mps 764 mmHg 50%
    05:00 +18°C° 0 mm 2 mps 764 mmHg 51%
    06:00 +17°C° 0 mm 2 mps 765 mmHg 52%
    07:00 +17°C° 0 mm 2 mps 765 mmHg 53%
    08:00 +20°C° 0 mm 1 mps 765 mmHg 49%
    09:00 +22°C° 0 mm 1 mps 765 mmHg 45%
    10:00 +23°C° 0 mm 1 mps 765 mmHg 41%
    11:00 +25°C° 0 mm 1 mps 764 mmHg 39%
    12:00 +26°C° 0 mm 1 mps 764 mmHg 37%
    13:00 +27°C° 0 mm 1 mps 763 mmHg 35%
    14:00 +26°C° 0 mm 2 mps 763 mmHg 37%
    15:00 +26°C° 0 mm 2 mps 763 mmHg 39%
    16:00 +25°C° 0 mm 3 mps 762 mmHg 41%
    17:00 +25°C° 0 mm 3 mps 763 mmHg 44%
    18:00 +24°C° 0 mm 3 mps 763 mmHg 47%
    19:00 +22°C° 0 mm 3 mps 763 mmHg 50%
    20:00 +21°C° 0 mm 3 mps 763 mmHg 50%
    21:00 +20°C° 0 mm 3 mps 763 mmHg 50%
    22:00 +20°C° 0 mm 3 mps 763 mmHg 49%
    23:00 +19°C° 0 mm 3 mps 763 mmHg 51%
    Show more